Hangzhou Xiaoshan International Airport

Airport
ICAO code: 
ZSHC
IATA Code: 
HGH
Summary
ICAO Region: 
APAC
Territory: 
Location: 
Xiaoshan, Zhejiang
Serving: 
Hangzhou
Elevation: 
23 ft
Coordinates: 
Aerial View: 
30° 13' 45.998" N, 120° 26' 3.998" E
Metar
Observation
ZSHC 021830Z 24002MPS 8000 NSC 03/01 Q1024 NOSIG
Station
Hangzhou
Date/Time
2021-12-02 18:30:00
Wind direction
240°
Lowest cloud amount
nil significant cloud
Temperature
3°C
Dew point
1°C
Humidity
86%
QNH
1024 hPa
Weather condition
n/a

Hangzhou Xiaoshan International Airport is the principal airport serving Hangzhou, a major city in the Yangtze River Delta region of the People's Republic of China and the provincial capital of Zhejiang.

Runways

Designator Length Width Surface Rops
7/25 3600 45 CON Yes/Yes
Airport map: 
Aerial View: 

SKYbrary Partners:

Safety knowledge contributed by: